Flag for Morocco Weather past 2 weeks in Tangier, Morocco

Now
68 °F

Passing clouds.


Feels Like: 68 °F
Forecast: 72 / 87 °F
Wind: 2 mph from North

Location: Tanger Aerodrome

Current Time: Aug 31, 2014 at 5:26:13 AM

Latest Report: Aug 31, 2014 at 5:00 AM


Visibility: 4 mi

Pressure: 29.95 "Hg

Humidity: 88%

Dew point: 64 °F

Location of TangierLocation

Historic Weather in Tangier — Graph

°F

Tangier temperature yesterday

Maximum temperature yesterday: 90 °F (at 3:00 PM)
Minimum temperature yesterday: 63 °F (at 5:00 AM)
Average temperature yesterday: 73 °F

Past Weeks' High & Low Weather Summary

 TemperatureHumidityPressure
High91 °F (Aug 16, 3:00 PM)88% (Aug 16, 7:00 AM)30.09 "Hg (Aug 16, 7:00 AM)
Low59 °F (Aug 21, 7:00 AM)32% (Aug 28, 4:30 PM)29.74 "Hg (Aug 17, 7:30 PM)
Average75 °F64%29.98 "Hg
* Reported Aug 16 4:00 AM — Aug 31 4:30 AM, Tangier, Weather by CustomWeather, © 2014

Note: Actual official high and low records may vary slightly from our data, if they occured in-between our weather recording intervals... More about our weather records

Advertising

Tangier weather history for previous 24 hours

 ConditionsComfort  
Time TempWeatherWind HumidityBarometerVisibility
4:30 AM
Aug 31
68 °FPassing clouds.3 mph88%29.95 "Hg4 mi
4:00 AM70 °FPassing clouds.3 mph88%29.95 "Hg4 mi
3:30 AM70 °FPassing clouds.6 mph88%29.95 "Hg5 mi
3:00 AM72 °FPassing clouds.3 mph88%29.98 "Hg5 mi
2:30 AM72 °FPassing clouds.5 mph88%29.98 "Hg5 mi
2:00 AM72 °FPassing clouds.No wind88%29.98 "Hg5 mi
1:30 AM72 °FPassing clouds.3 mph83%30.01 "Hg5 mi
1:00 AM72 °FClear.6 mph83%30.01 "Hg6 mi
12:30 AM72 °FClear.3 mph83%30.01 "Hg6 mi
12:00 AM68 °FClear.No wind73%30.01 "Hg6 mi
11:30 PM
Aug 30
68 °FClear.No wind73%30.01 "Hg6 mi
11:00 PM70 °FClear.No wind73%30.01 "Hg6 mi
10:30 PM70 °FClear.2 mph73%30.01 "Hg10 mi
10:00 PM72 °FClear.5 mph69%30.01 "Hg10 mi
9:30 PM72 °FClear.6 mph69%29.98 "Hg10 mi
9:00 PM72 °FClear.5 mph69%29.98 "Hg10 mi
8:30 PM73 °FClear.7 mph65%29.98 "Hg10 mi
8:00 PM73 °FClear.6 mph69%29.95 "Hg10 mi
7:00 PM81 °FPassing clouds.7 mph62%29.95 "HgN/A
6:30 PM82 °FPassing clouds.9 mph55%29.95 "HgN/A
6:00 PM81 °FSunny.10 mph62%29.95 "Hg10 mi
5:30 PM81 °FSunny.14 mph58%29.95 "Hg10 mi
5:00 PM82 °FSunny.17 mph58%29.95 "Hg10 mi
4:30 PM90 °FPassing clouds.10 mph33%29.95 "HgN/A
4:00 PM88 °FSunny.14 mph38%29.95 "Hg10 mi
3:00 PM90 °FPassing clouds.6 mph36%29.98 "HgN/A
2:30 PM82 °FPassing clouds.10 mph58%29.98 "HgN/A
2:00 PM84 °FPassing clouds.9 mph43%30.01 "HgN/A
1:30 PM82 °FPassing clouds.8 mph40%30.01 "HgN/A
1:00 PM81 °FSunny.9 mph48%30.01 "Hg10 mi
12:30 PM79 °FSunny.8 mph61%30.01 "Hg10 mi
12:00 PM79 °FPassing clouds.7 mph58%30.01 "HgN/A
11:00 AM77 °FPassing clouds.7 mph65%30.01 "HgN/A
10:30 AM77 °FPassing clouds.9 mph65%30.01 "HgN/A
10:00 AM77 °FScattered clouds.3 mph61%30.01 "HgN/A
9:30 AM75 °FScattered clouds.5 mph61%30.01 "Hg6 mi
9:00 AM73 °FScattered clouds.3 mph69%29.98 "Hg5 mi
8:30 AM70 °FScattered clouds.No wind69%29.98 "Hg5 mi
8:00 AM66 °FScattered clouds.No wind73%29.98 "Hg5 mi
7:30 AM63 °FScattered clouds.No wind77%29.98 "Hg5 mi
7:00 AM63 °FScattered clouds.No wind77%29.98 "Hg5 mi
6:30 AM63 °FClear.2 mph73%29.95 "Hg5 mi
6:00 AM63 °FClear.3 mph73%29.95 "Hg5 mi
5:30 AM63 °FClear.No wind73%29.95 "Hg5 mi
5:00 AM63 °FClear.3 mph73%29.95 "Hg5 mi
Weather by CustomWeather, © 2014

See weather overviewHow to use our weather pages